Погода в Кошагаче

Узбекистан     49°59′47″N   88°39′41″E
темп.,
°C
ветер,
м/с
пор.,
м/с
влажн.,
%
обл.,
%
осадки,
мм/ч
давл.,
гПа
погр.,
м
19 сентября, вс
вс1923:00+5вюв2270100 0.0 101112
02:00+4в22724 0.0 101215
05:00+3в22780 0.0 101213
08:00+9юв115120 0.0 1011478
11:00+14зюз2523100 0.0 10071338
14:00+16зюз9101231 0.0 10052660
17:00+10зюз23245 0.0 100643
20:00+8юз49225 0.0 1007239
20 сентября, пн
пн2023:00+5вюв33365 0.0 100618
02:00+5ююв48475 0.0 1005120
05:00+5юз714604 0.0 1006636
08:00+8з10123416 0.3 10061982
11:00+10зсз582713 0.3 10062006
14:00+11з781612 0.0 10052582
17:00+6зюз582113 0.0 1007217
20:00+1св11425 0.0 100911
21 сентября, вт
вт2123:00−1з11460 0.0 101010
02:00−2з12460 0.0 101110
05:00−4зсз22500 0.0 101310
08:00+3з23260 0.0 1011920
11:00+6юз25155 0.0 10072107
14:00+7зюз991583 0.0 10052882
17:00+3зсз483264 0.1 1009435
20:00−2с336718 0.0 101453
22 сентября, ср
ср2223:00−4св227734 0.0 101524
02:00−5ссв118346 0.0 101520
05:00−5сз128256 0.1 101728
08:00−1зсз115950 0.1 1017828
11:00+3зюз133289 0.1 10142058
14:00+5зюз142538 0.0 10112087
17:000св12342 0.0 101114
20:00−2с33480 0.0 101730
23 сентября, чт
чт2323:00−4ссв11545 0.0 101710
02:00−5св00595 0.0 101710
05:00−6ссз00665 0.0 101810
08:00+1ююв11318 0.0 1016612
11:00+5с04195 0.0 10121745
14:00+7з141782 0.0 10102006
17:00+3зсз462595 0.0 1011133
20:000всв013698 0.0 101412